Location: Austin
(30.3000°N, 97.7500°W)
Time: 19:21:54
(UTC-05:00)

Daily predictions for brighter satellites

Satellite Brightness Start Highest point End
(mag) Time Altitude Azimuth Time Altitude Azimuth Time Altitude Azimuth
Cosmos 1821 Rocket 4.1 20:52:37 10° N 20:59:00 71° E 21:05:19 10° SSE
Resurs 1-3 3.8 20:54:54 10° SSE 20:59:11 55° ENE 21:03:28 10° N
Meteor 1-24 Rocket 4.1 20:54:47 10° SSE 21:00:29 49° E 21:06:03 10° NNE
Aureole 2 Rocket 3.4 20:59:26 10° N 21:03:09 36° ENE 21:06:37 10° SE
COSMOS 2428 3.5 20:58:59 10° NNW 21:04:32 54° WSW 21:10:04 10° S
Helios 1A 4.4 21:02:43 10° ESE 21:05:54 22° ENE 21:09:06 10° NNE
Helios 1B rocket 3.3 21:02:35 10° NE 21:06:17 30° E 21:09:55 10° SSE
SL-16 R/B 3.9 21:03:34 10° NNE 21:07:16 18° ENE 21:10:57 10° E
Envisat 3.5 21:06:04 10° SE 21:10:48 41° ENE 21:15:32 10° N
Cosmos 1934 Rocket 4.0 21:05:07 10° N 21:11:14 67° E 21:17:14 10° SSE
DELTA 2 R/B (1) 4.0 21:08:47 10° WNW 21:14:15 56° SW 21:19:43 10° SE
Meteor 1-29 4.0 21:12:07 10° NE 21:15:03 26° E 21:17:59 10° SSE
Lacrosse 4 Rocket 3.6 21:11:26 10° SW 21:15:11 32° WNW 21:19:05 10° N
Cosmos 1140 Rocket 3.4 21:13:10 10° SSW 21:18:20 83° ESE 21:23:30 10° NNE
Cosmos 1842 Rocket 3.9 21:17:40 10° N 21:21:54 46° E 21:26:03 10° SSE
Cosmos 1605 Rocket 4.2 21:17:26 10° N 21:23:36 57° E 21:29:49 10° SSE
Cosmos 2219 Rocket 2.6 21:18:01 10° NNW 21:23:38 66° WSW 21:29:11 10° S
USA 32 4.3 21:21:52 10° SSE 21:26:52 48° E 21:31:54 10° NNE
Cosmos 2333 Rocket 2.4 21:24:18 10° NNW 21:29:55 73° WSW 21:35:31 10° SSE
CZ-4B DEB 3.9 21:28:55 16° ESE 21:30:24 24° ENE 21:32:51 10° NNE
Skynet4D Del rocket 4.0 21:24:57 10° W 21:30:34 59° S 21:36:05 14° ESE
Cosmos-2242 4.4 21:32:10 10° NNW 21:36:09 39° W 21:40:09 10° SSW
Cosmos 1727 Rocket 4.0 21:30:29 10° S 21:36:46 80° E 21:43:07 10° N
GPS 2-05 Rocket1 3.2 21:36:00 10° SW 21:38:50 34° SSE 21:40:21 21° E
OAO 3 Rocket 4.2 21:36:39 10° W 21:40:47 32° SSW 21:43:49 16° SSE
Cosmos 1076 Rocket 4.3 21:38:27 16° SSE 21:41:19 32° E 21:45:13 10° NNE
Cosmos 1867 3.5 21:37:15 10° SSW 21:42:39 75° ESE 21:48:06 10° NNE
Cosmos 2297 Rocket 4.0 21:47:29 10° SW 21:52:33 33° WNW 21:57:39 10° N
Cosmos 1850 Rocket 4.1 21:49:18 10° SSW 21:54:27 79° WNW 21:59:39 10° NNE
Meteor 1-21 Rocket 4.4 21:50:42 12° SSE 21:55:52 52° E 22:01:18 10° NNE
Cosmos 2221 2.8 21:55:48 10° N 22:00:05 51° E 22:02:03 29° SE
Okean 3 Rocket 3.5 21:56:53 10° S 22:01:23 88° E 22:05:53 10° N
Cosmos 2263 Rocket 3.9 22:04:26 14° E 22:04:26 14° E 22:06:16 10° ENE
YAOGAN 6 2.5 22:02:07 29° SSE 22:03:52 84° E 22:07:31 10° N
ERS-1 Rocket 3.3 22:01:44 26° SE 22:04:15 49° ENE 22:09:07 10° N
USA 234 3.2 21:58:21 10° NE 22:04:55 79° SE 22:11:26 10° SW
Cosmos 1939 Rocket 3.4 22:01:55 16° S 22:05:00 56° W 22:08:58 10° NNW
ATLAS 5 CENTAUR R/B 3.5 22:05:17 10° WSW 22:09:27 34° NW 22:13:53 10° N
Cosmos 1340 Rocket 4.4 22:07:47 10° SSW 22:11:27 35° W 22:15:11 10° NNW
H-2A R/B 3.5 22:10:15 20° E 22:11:39 22° ENE 22:15:41 10° NNE
Cosmos 1726 4.1 22:11:03 10° NE 22:12:45 16° ENE 22:12:45 16° ENE
Sakura Rocket 4.1 22:05:50 10° W 22:14:22 77° S 22:18:33 23° E
Cosmos 1766 Rocket 3.5 22:15:19 38° SSE 22:16:43 57° E 22:20:58 10° NNE
Terra 4.1 22:19:38 11° ENE 22:19:53 11° ENE 22:20:52 10° NE
USA 245 4.2 22:24:12 28° NE 22:24:12 28° NE 22:26:59 10° N
Cosmos 1818 3.7 22:18:48 10° NNW 22:24:11 61° ENE 22:26:01 39° ESE
SEDSat Delta rocket 4.0 22:22:06 10° W 22:25:53 28° SSW 22:26:06 28° SSW
Palapa 6 Rocket 4.0 22:22:06 10° WSW 22:26:27 31° S 22:26:27 31° S
Cosmos 2237 Rocket 3.7 22:22:18 10° NW 22:27:11 31° WSW 22:31:36 12° SSW
SL-08 RB Rocket 4.3 22:28:02 37° E 22:28:33 38° ENE 22:32:47 10° N
Cosmos 1674 3.7 22:30:15 20° SW 22:32:31 43° W 22:36:07 10° N
Cosmos 1743 Rocket 4.4 22:33:39 34° ENE 22:33:39 34° ENE 22:36:58 10° NNE
NOSS 3-4 (A) 4.2 22:26:49 10° NW 22:33:56 61° WSW 22:38:13 27° S
NOSS 3-4 (C) 4.2 22:26:55 10° NW 22:34:02 61° WSW 22:38:17 27° S
Delta 2 Rocket 4.0 22:31:36 10° WSW 22:37:20 88° SSE 22:41:58 17° ENE
Cosmos 2228 Rocket 4.4 22:33:32 10° NNE 22:37:00 27° ENE 22:37:00 27° ENE
STPSAT 2 (USA 217) 4.5 22:39:50 45° SSW 22:41:14 89° ESE 22:45:47 10° NNE
Cosmos 1908 3.6 22:39:04 10° NNW 22:42:52 57° W 22:43:23 51° SW
ARGOS 3.1 22:43:01 50° SSE 22:44:27 77° ENE 22:49:52 10° N
MetOp-A 4.1 22:42:42 43° S 22:44:31 80° WSW 22:49:53 10° NNW
Atlas Centaur 2 2.1 22:43:50 10° W 22:46:11 36° WSW 22:46:11 36° WSW
Cosmos 1459 Rocket 4.1 22:44:11 10° N 22:50:25 70° W 22:53:12 34° SSW
SL-16 R/B 2.8 22:46:10 10° NNW 22:51:38 51° WSW 22:53:38 35° SSW
Cosmos 2100 Rocket 4.4 22:47:18 10° NNW 22:53:31 61° W 22:56:44 29° SSW
DMSP B5D2-2 4.1 22:48:38 10° NNE 22:53:40 56° E 22:53:40 56° E
Cosmos 2061 Rocket 4.2 22:51:25 10° NNW 22:57:46 69° W 23:00:27 36° SSW
Cosmos 2123 Rocket 3.9 22:55:40 42° S 22:57:54 89° W 23:04:08 10° N
Milstar 3 Cent rocket 3.9 22:51:53 10° W 22:59:46 60° SSW 23:06:11 36° SE
Cosmos 1486 Rocket 3.8 23:00:59 74° SSE 23:01:25 81° ESE 23:06:43 10° NNE
Nimbus 7 Rocket 4.5 22:57:12 10° N 23:03:13 77° WNW 23:05:47 36° SSW
SPOT 1/Viking Rocket 3.3 23:06:11 79° ESE 23:06:26 83° ENE 23:11:35 10° N
Cosmos 220 Rocket 4.5 23:06:50 56° W 23:07:12 58° WNW 23:11:33 10° N
Cosmos 1242 Rocket 4.4 23:05:54 10° NW 23:09:01 26° W 23:09:01 26° W
Meteor 1-11 4.1 23:14:28 76° SE 23:14:45 78° E 23:20:34 10° N
Cosmos 1763 Rocket 4.1 23:10:48 10° N 23:15:02 43° NE 23:15:02 43° NE
Cosmos 2058 4.3 23:18:06 32° NNE 23:18:06 32° NNE 23:20:27 10° NNE
SPOT 5 3.4 23:16:55 50° WSW 23:17:10 50° W 23:22:00 10° NNW
Cosmos 371 Rocket 3.7 23:20:30 10° NNW 23:24:25 57° N 23:24:25 57° N
Lacrosse 5 2.5 23:21:28 10° NNW 23:25:53 48° NNE 23:25:53 48° NNE
Cosmos 1725 Rocket 4.0 23:21:17 10° N 23:27:30 73° W 23:28:17 65° SW
RESURS DK-1 3.8 23:31:26 10° NNW 23:34:01 36° NW 23:34:01 36° NW
Meteor 1-27 4.4 23:30:12 10° N 23:35:26 68° NE 23:35:26 68° NE
Cosmos 2151 4.3 23:39:05 38° NNW 23:39:05 38° NNW 23:41:58 10° N
CZ-4C R/B 4.2 23:41:35 16° NE 23:41:35 16° NE 23:42:46 10° NE
Cosmos 2263 Rocket 2.7 23:46:03 50° W 23:46:34 52° WNW 23:52:00 10° N
H-2A R/B 3.2 23:50:53 35° W 23:50:53 35° W 23:55:38 10° NNW
